Temperature
24 21 21 22 23 23 22 21 19 19 20 18 16 16 16 17 17 16 16 16 16 15 15 15 14 14 14 14 14 13 13 13 14 14 14 15 15 15 15 15 15 15 16 16
20 21 23 24 23 21 20 19 19 20 20 18 16 16 16 17 16 16 16 16 15 15 15 14 14 14 13 13 13 13 13 13 13 13 13 14 14 14 14 15 15 15 15 16
21 22 24 22 21 21 20 19 19 19 19 18 16 16 16 16 16 16 16 15 15 15 14 14 14 13 13 13 13 13 13 13 13 13 13 13 14 14 14 14 15 15 15 15
22 22 22 20 20 20 20 21 21 20 18 16 17 14 15 15 15 15 15 15 15 15 14 14 14 13 13 13 13 12 12 12 13 13 13 13 13 13 14 14 14 15 15 15
21 21 20 20 21 21 20 21 21 20 18 17 16 14 14 15 14 14 15 15 15 15 14 14 14 13 13 13 13 12 12 12 12 12 12 13 13 13 13 13 14 14 14 15
21 22 21 21 21 21 21 19 18 16 15 16 17 15 14 13 14 15 15 15 15 15 15 14 14 14 13 13 13 12 12 12 12 12 12 12 12 12 13 13 13 14 14 14
20 21 21 21 20 20 19 16 15 16 15 15 16 15 14 14 15 15 15 15 15 15 15 14 14 14 13 13 13 12 12 12 12 12 12 12 12 12 12 12 13 13 14 14
19 18 20 20 20 19 19 16 16 16 16 15 17 15 14 15 16 16 16 15 15 15 15 15 14 14 14 13 13 13 12 12 12 12 12 12 12 12 12 12 12 13 13 13
18 18 20 21 21 20 19 17 16 15 16 16 15 15 15 15 15 15 15 15 15 15 15 15 15 14 14 13 13 13 12 12 12 12 12 11 12 12 12 12 12 12 13 13
18 18 20 20 20 20 19 18 15 15 16 16 16 15 13 14 14 15 15 15 16 16 15 15 15 14 14 13 13 13 12 12 12 11 11 11 11 11 12 12 12 12 12 13
19 17 19 19 19 19 19 18 15 13 14 15 15 14 15 14 14 14 15 16 16 16 16 15 15 14 14 14 13 13 12 12 12 11 11 11 11 11 11 12 12 12 12 12
18 15 16 18 18 19 19 18 15 15 15 14 13 14 16 15 15 16 16 16 16 16 16 15 15 15 14 14 13 13 12 12 12 11 11 11 11 11 11 11 11 12 12 12
18 16 16 18 17 18 19 19 17 14 13 14 14 15 15 15 15 16 16 16 16 16 16 16 15 15 14 14 13 13 13 12 12 11 11 11 11 11 11 11 11 11 11 12
18 16 17 18 17 17 18 18 18 15 14 14 15 16 15 14 14 16 16 16 16 16 16 16 15 15 15 14 14 13 13 12 12 11 11 11 11 11 11 11 11 11 11 11
17 18 19 18 19 19 19 19 18 17 15 15 16 16 15 14 15 16 17 17 16 16 16 16 16 15 15 14 14 13 13 12 12 11 11 11 11 10 10 10 10 10 11 11
17 19 19 19 19 20 20 19 18 17 17 16 16 16 16 17 17 16 17 17 17 16 16 16 16 15 15 14 14 14 13 13 12 12 11 11 11 10 10 10 10 10 10 10
17 18 18 18 19 20 19 19 18 18 18 17 16 16 16 15 15 17 17 17 17 17 16 16 16 15 15 14 14 14 13 13 12 12 11 11 11 10 10 10 10 10 10 10
17 16 15 16 19 19 19 20 20 19 19 18 18 17 16 17 18 18 18 17 17 17 16 16 16 15 15 14 14 14 13 13 12 12 11 11 10 10 10 10 10 10 10 10
16 17 16 15 18 18 20 21 21 20 19 19 17 17 18 18 17 17 18 18 18 17 17 16 16 15 15 15 14 14 13 13 12 12 11 11 10 10 10 10 10 10 10 9
16 14 15 16 18 19 20 21 21 20 19 20 19 17 18 17 14 15 18 18 18 17 17 16 16 16 15 15 14 14 13 13 12 12 11 11 11 10 10 10 10 10 9 9
17 16 15 16 17 17 19 21 21 19 19 21 21 20 19 17 18 20 19 18 18 17 17 17 16 16 15 15 14 14 13 13 12 12 11 11 11 10 10 10 10 10 10 9
16 15 15 14 17 18 20 20 18 19 22 22 22 22 21 21 20 20 19 19 18 17 17 17 16 16 16 15 15 14 14 13 12 12 12 11 11 11 10 10 10 10 10 10
15 16 15 15 17 20 22 22 24 23 23 23 22 22 22 21 20 20 19 19 18 18 17 17 17 16 16 15 15 15 14 14 13 12 12 12 11 11 11 11 10 10 10 10
18 18 17 18 19 21 23 23 23 23 23 23 22 22 22 21 21 20 19 19 18 18 17 17 17 17 16 16 16 15 15 14 13 13 12 12 12 11 11 11 11 10 10 10
18 18 18 19 19 22 23 24 24 24 23 23 22 22 22 21 21 20 19 19 18 18 18 17 17 17 17 16 16 16 15 14 14 13 13 12 12 12 11 11 11 11 10 10
13 14 16 17 18 18 21 22 23 23 23 22 22 22 22 21 21 21 20 19 19 18 18 18 17 17 17 17 17 16 16 15 14 14 13 13 13 12 12 11 11 11 11 11
Wind_Speed
5 7 4 2 4 4 2 4 5 4 5 5 8 7 4 3 6 6 5 5 5 5 5 7 7 8 8 9 9 9 9 9 7 5 5 5 5 5 5 4 6 7 7 7
7 4 1 3 6 8 9 9 5 3 3 5 7 4 2 3 4 5 4 3 3 4 7 7 7 7 7 8 8 8 8 8 7 5 5 4 5 5 5 5 5 7 6 7
8 2 3 8 8 8 7 6 5 4 2 5 7 2 1 1 3 3 3 2 2 4 5 6 6 6 7 7 8 8 8 8 8 8 5 5 4 4 4 5 5 5 6 6
6 3 7 8 5 5 2 1 3 4 4 3 5 3 5 3 1 1 1 1 1 3 3 5 5 6 7 6 7 7 8 8 8 7 6 6 5 5 5 5 6 7 6 5
3 3 6 5 1 2 4 2 0 2 3 0 1 4 4 3 2 2 1 1 1 2 3 4 5 6 6 6 6 7 7 7 7 7 7 6 6 5 6 6 7 6 5 5
4 3 4 1 2 1 1 5 6 6 5 2 4 5 5 5 5 3 2 1 1 2 3 5 5 5 6 6 6 7 7 7 8 8 7 7 8 8 8 8 7 6 5 4
4 4 3 3 4 5 6 6 5 5 4 5 1 3 6 5 5 5 4 3 3 3 4 5 6 6 6 7 7 6 7 7 8 8 8 7 8 8 8 7 7 7 5 4
5 2 3 2 2 1 1 7 6 3 4 4 2 2 5 5 6 5 5 4 2 3 4 5 6 6 6 6 5 5 6 6 7 8 8 7 7 6 6 7 6 6 5 4
7 4 3 1 1 3 2 2 6 6 1 1 3 2 3 2 4 4 5 4 3 4 5 6 5 5 5 4 4 4 5 6 7 7 7 7 7 7 7 8 7 6 5 5
8 5 4 2 3 4 1 3 5 3 1 3 4 4 5 8 8 6 5 4 5 5 5 5 5 4 4 3 3 4 4 4 5 6 6 6 7 7 7 7 9 8 8 7
5 6 2 2 0 1 3 3 4 4 4 4 4 6 5 9 8 7 7 6 6 6 6 5 4 4 4 2 2 3 4 4 5 6 5 6 7 7 7 7 8 8 8 8
4 6 3 2 4 0 3 4 5 3 1 2 3 7 3 8 8 7 7 6 5 6 5 5 4 4 3 2 2 2 3 3 3 4 5 6 6 7 8 8 8 8 8 8
4 6 4 3 5 3 1 3 5 6 3 2 2 7 2 5 6 7 7 6 5 5 5 4 4 4 4 3 3 2 2 2 2 3 5 6 6 7 7 7 8 8 8 8
4 4 6 6 8 6 4 5 5 5 3 3 6 6 5 8 8 8 8 7 6 6 5 4 4 5 5 4 4 3 2 1 1 3 4 5 5 6 6 6 7 7 7 7
5 3 4 6 7 6 6 7 8 7 8 7 7 7 9 13 13 11 9 8 6 5 4 3 4 4 4 4 4 3 1 0 2 3 4 4 4 5 6 6 6 7 7 7
3 2 1 3 6 6 5 8 9 8 7 8 7 8 8 8 8 8 9 8 7 6 5 4 2 2 3 5 4 3 2 1 2 3 2 2 4 5 5 6 6 6 6 6
3 3 2 3 2 1 6 8 9 7 7 8 9 8 4 6 10 12 11 9 8 7 6 4 2 2 3 4 5 4 3 2 3 2 1 2 3 4 5 5 6 6 5 5
5 4 3 1 3 3 8 5 6 7 7 9 8 7 11 11 12 10 10 10 9 8 7 5 3 2 2 2 3 3 3 3 3 2 1 1 2 3 4 5 5 5 4 4
4 6 4 3 1 6 7 4 2 2 6 6 9 8 10 6 5 4 8 10 10 9 7 6 4 4 2 2 3 4 4 3 3 2 2 1 0 2 3 4 5 4 4 4
6 6 5 3 0 4 6 3 3 3 5 6 7 10 9 9 5 7 9 9 9 8 7 6 5 4 3 2 4 6 5 4 3 4 3 2 2 1 2 3 3 3 3 4
2 3 3 3 3 7 7 2 4 1 7 5 6 9 12 12 10 7 8 9 9 9 8 7 6 5 4 4 6 6 5 5 6 5 3 3 3 3 2 2 3 3 4 4
8 6 5 5 2 7 5 6 6 9 5 4 5 8 12 11 8 6 8 10 10 9 8 7 6 5 5 5 7 7 7 7 6 5 4 3 4 3 1 1 2 3 4 4
7 9 7 8 8 7 7 10 8 6 5 4 5 7 10 9 9 9 9 10 10 10 9 7 7 6 5 6 7 8 7 7 6 5 5 5 4 3 1 1 0 2 3 3
4 4 4 3 6 6 7 8 7 6 7 5 5 7 10 10 11 11 10 10 10 10 9 8 7 7 6 7 8 8 8 8 7 6 6 5 4 4 3 2 1 1 0 1
4 2 1 3 7 7 6 4 7 7 8 7 5 6 10 11 11 11 11 11 10 10 9 8 8 9 9 8 8 8 8 8 7 6 6 5 5 5 4 3 2 3 3 3
5 3 1 5 6 3 4 6 5 4 6 8 6 5 6 10 12 12 12 11 11 11 9 9 10 10 9 8 9 8 8 8 7 5 5 5 5 5 4 3 2 3 4 5
Wind_Direction
44 66 77 104 131 128 118 117 116 126 138 113 132 148 168 135 101 89 72 51 35 15 351 1 8 6 360 356 355 351 350 345 344 339 331 321 314 307 302 289 283 281 274 260
52 64 330 48 66 74 84 94 97 110 152 117 131 140 167 140 127 126 115 77 36 2 353 355 358 356 352 347 346 344 343 338 339 330 313 291 291 290 287 291 296 289 278 265
127 195 57 78 65 80 72 114 159 176 96 96 116 87 175 104 107 110 105 91 56 15 357 344 343 342 341 342 339 340 333 333 332 333 327 323 316 309 317 317 307 294 287 272
100 47 79 78 65 91 126 156 145 141 126 204 161 184 228 191 124 91 80 75 27 352 344 334 334 331 330 326 329 333 331 331 332 337 343 342 334 319 305 304 297 300 292 281
89 77 75 75 89 133 198 235 92 124 135 20 142 147 252 189 210 243 239 195 298 323 331 327 321 314 316 319 325 330 332 332 332 336 339 341 334 315 309 311 310 312 306 294
82 74 100 147 286 248 73 32 30 50 68 325 241 163 242 222 206 206 220 232 267 305 317 316 312 313 314 317 324 331 336 332 335 338 341 345 338 336 337 335 332 326 316 305
62 17 13 41 26 15 63 68 34 10 6 261 237 144 237 221 190 181 182 203 238 281 304 305 307 311 314 316 324 331 335 332 337 340 341 342 341 341 343 337 335 334 326 319
131 282 310 32 132 185 122 134 143 186 236 278 334 225 251 207 188 179 175 192 233 284 288 288 290 296 302 310 319 328 330 330 336 340 338 341 343 344 340 341 340 339 332 324
152 212 275 264 38 122 80 126 171 147 224 281 288 302 311 210 204 193 197 206 247 278 278 283 290 302 303 305 306 310 323 331 335 339 340 345 349 349 347 347 349 348 346 353
133 155 241 227 20 351 161 147 77 89 102 309 286 244 234 211 219 214 204 214 247 267 279 292 292 293 294 292 306 325 326 327 330 341 347 353 350 351 352 359 2 2 3 6
117 126 142 54 163 259 27 55 87 114 150 162 277 270 225 192 195 196 206 217 240 260 269 273 275 278 282 294 316 335 342 340 342 347 351 357 355 356 0 5 4 3 8 12
94 110 100 300 304 241 152 145 131 133 267 174 207 269 244 176 183 186 200 219 244 257 260 258 265 270 278 286 287 318 333 335 336 351 4 1 358 1 6 5 2 5 13 15
96 107 91 344 331 330 254 187 146 134 124 155 213 271 245 196 191 195 198 220 249 262 266 267 268 265 268 267 263 286 306 325 357 18 19 13 6 6 4 2 3 9 15 17
108 107 156 188 211 197 197 210 175 129 151 243 235 247 217 218 210 212 213 223 238 253 259 255 264 266 262 251 247 250 282 318 54 39 29 19 6 4 3 2 6 10 13 19
107 116 202 222 212 182 191 198 195 186 192 204 236 231 232 212 207 209 214 223 233 245 241 231 244 260 257 249 251 253 262 25 90 62 35 13 4 7 8 7 6 9 13 18
98 133 243 281 233 208 232 228 211 216 212 219 234 256 244 196 188 203 211 214 222 226 218 212 238 270 253 239 236 233 209 181 129 94 50 13 13 11 7 4 5 8 6 3
98 125 90 309 319 94 278 243 211 215 210 193 215 234 177 166 194 203 207 208 210 209 205 201 218 250 245 232 216 203 196 164 128 111 75 25 15 12 1 1 3 360 356 359
123 110 114 35 50 245 257 260 197 209 232 210 210 204 181 194 202 203 196 195 199 197 194 195 193 214 236 225 191 176 157 140 131 122 117 28 17 7 358 0 354 345 342 349
129 125 99 90 321 287 291 276 173 197 277 228 209 207 197 179 152 238 215 192 190 193 192 194 190 188 194 190 164 146 139 136 133 149 182 213 12 1 355 352 342 334 338 345
73 89 105 105 130 264 264 265 122 89 289 265 199 196 178 142 172 243 220 195 186 183 180 180 174 170 176 175 142 139 151 158 173 195 206 209 208 251 318 322 323 326 336 344
71 66 123 169 233 266 258 168 83 103 254 269 199 188 173 182 203 217 188 185 182 179 184 174 165 181 200 174 144 151 171 192 204 203 202 210 225 239 265 317 329 341 359 8
169 163 185 156 198 268 221 145 183 221 241 259 209 192 190 206 210 199 182 180 178 180 183 175 175 202 212 183 160 170 197 210 206 203 209 222 233 246 210 2 349 2 16 19
189 186 182 184 213 241 209 205 219 191 217 237 212 213 194 192 191 189 185 181 183 186 189 187 188 205 216 197 180 187 209 204 201 207 223 233 235 238 217 189 336 10 18 23
286 171 150 226 267 266 249 244 254 232 241 249 221 205 183 190 190 188 186 188 190 194 195 194 192 204 219 211 204 205 204 196 196 211 228 230 226 233 234 226 202 167 336 352
321 40 64 275 295 325 336 289 260 254 265 269 249 208 196 192 193 192 192 195 197 198 198 192 197 208 218 214 215 215 204 190 197 215 228 226 216 214 218 224 226 216 225 210
353 357 284 252 282 261 295 338 348 303 281 269 257 240 214 197 199 197 200 201 200 201 198 198 204 209 215 212 216 217 205 193 194 211 223 219 210 209 208 213 249 273 246 245
Height
1533 1540 1547 1544 1542 1543 1545 1551 1557 1557 1554 1559 1564 1567 1566 1565 1564 1564 1563 1562 1561 1559 1557 1554 1551 1547 1544 1540 1536 1533 1530 1527 1524 1521 1519 1517 1515 1514 1512 1511 1511 1510 1511 1511
1542 1546 1541 1539 1540 1543 1547 1555 1559 1556 1554 1559 1567 1569 1567 1566 1565 1564 1563 1562 1561 1559 1556 1553 1550 1546 1543 1539 1535 1532 1529 1525 1522 1519 1517 1514 1512 1510 1508 1507 1506 1506 1506 1506
1544 1544 1539 1541 1545 1548 1552 1556 1557 1558 1556 1559 1567 1574 1570 1567 1566 1565 1563 1562 1560 1558 1555 1552 1549 1546 1542 1538 1535 1531 1527 1524 1521 1518 1515 1512 1509 1507 1505 1503 1502 1501 1501 1501
1542 1541 1541 1545 1548 1549 1555 1549 1550 1554 1563 1570 1567 1583 1573 1568 1567 1565 1563 1561 1560 1558 1555 1552 1549 1546 1542 1538 1535 1531 1527 1523 1520 1517 1513 1510 1507 1504 1502 1500 1498 1497 1497 1496
1545 1544 1546 1549 1548 1547 1550 1547 1549 1552 1559 1567 1568 1578 1577 1569 1568 1565 1563 1561 1559 1557 1555 1552 1549 1546 1542 1539 1535 1531 1527 1524 1520 1516 1513 1509 1506 1503 1500 1498 1495 1494 1493 1492
1544 1543 1545 1547 1545 1545 1546 1550 1554 1561 1568 1577 1567 1575 1576 1571 1565 1563 1562 1560 1558 1557 1554 1552 1549 1546 1542 1539 1535 1531 1528 1524 1520 1516 1513 1509 1505 1502 1499 1496 1493 1491 1490 1489
1551 1548 1546 1546 1548 1548 1551 1566 1579 1579 1586 1580 1565 1569 1572 1562 1560 1560 1560 1559 1558 1556 1553 1551 1548 1545 1542 1538 1535 1531 1528 1524 1520 1516 1513 1509 1505 1502 1498 1495 1492 1490 1488 1486
1560 1563 1550 1547 1550 1553 1553 1563 1580 1587 1586 1579 1566 1570 1567 1559 1558 1558 1558 1558 1556 1555 1553 1550 1547 1544 1541 1538 1535 1532 1528 1524 1521 1517 1513 1510 1506 1502 1499 1496 1492 1490 1487 1485
1560 1561 1549 1548 1548 1549 1554 1560 1561 1574 1574 1579 1574 1569 1564 1559 1558 1558 1557 1556 1555 1554 1552 1549 1547 1544 1541 1538 1535 1532 1528 1525 1521 1518 1514 1511 1507 1503 1500 1496 1493 1490 1487 1485
1548 1559 1552 1549 1549 1549 1551 1554 1566 1572 1580 1584 1574 1571 1571 1561 1559 1557 1556 1555 1554 1552 1550 1548 1546 1544 1541 1538 1535 1532 1529 1526 1522 1519 1515 1512 1508 1505 1501 1497 1494 1491 1488 1486
1542 1556 1556 1553 1555 1555 1554 1556 1564 1573 1577 1584 1585 1575 1554 1554 1554 1554 1554 1553 1552 1551 1549 1548 1545 1543 1541 1538 1536 1533 1529 1526 1523 1520 1516 1513 1509 1506 1502 1499 1495 1492 1489 1487
1542 1556 1565 1558 1553 1550 1551 1555 1563 1573 1574 1577 1583 1575 1549 1549 1550 1551 1552 1551 1551 1550 1548 1546 1545 1543 1540 1538 1535 1533 1530 1527 1524 1520 1517 1514 1510 1507 1503 1500 1497 1494 1491 1488
1542 1555 1570 1566 1563 1555 1552 1551 1555 1565 1573 1576 1580 1569 1549 1549 1549 1550 1550 1549 1549 1548 1547 1545 1544 1542 1540 1538 1535 1533 1530 1527 1524 1521 1518 1514 1511 1508 1504 1501 1498 1495 1492 1489
1541 1552 1561 1565 1562 1553 1553 1552 1551 1561 1572 1571 1566 1558 1551 1549 1548 1548 1547 1547 1547 1546 1546 1544 1543 1541 1539 1537 1535 1533 1530 1528 1525 1522 1518 1515 1512 1509 1506 1503 1499 1496 1493 1490
1541 1549 1548 1548 1544 1544 1546 1548 1550 1554 1558 1562 1555 1550 1545 1542 1543 1544 1545 1545 1545 1545 1544 1543 1542 1540 1538 1536 1534 1532 1530 1528 1525 1522 1519 1516 1513 1510 1507 1504 1501 1498 1495 1492
1541 1546 1546 1546 1542 1542 1544 1543 1545 1547 1547 1548 1546 1544 1534 1535 1538 1541 1542 1542 1543 1543 1542 1542 1540 1539 1537 1535 1534 1532 1530 1528 1525 1522 1519 1517 1514 1511 1508 1505 1502 1499 1496 1493
1543 1547 1551 1555 1545 1545 1551 1540 1540 1540 1537 1539 1543 1538 1533 1535 1536 1537 1538 1539 1540 1540 1541 1540 1539 1538 1536 1535 1533 1531 1530 1528 1525 1523 1520 1517 1515 1511 1509 1506 1503 1500 1497 1495
1542 1548 1556 1557 1553 1559 1544 1528 1528 1531 1530 1529 1529 1528 1529 1529 1531 1533 1535 1536 1537 1538 1539 1538 1538 1537 1535 1534 1532 1531 1529 1528 1525 1523 1520 1518 1515 1512 1510 1507 1504 1501 1499 1496
1537 1545 1555 1562 1559 1553 1537 1527 1527 1530 1530 1524 1525 1525 1526 1528 1531 1532 1532 1533 1534 1536 1536 1537 1536 1536 1535 1533 1532 1531 1529 1527 1525 1523 1521 1519 1516 1513 1511 1508 1505 1502 1500 1497
1540 1543 1555 1560 1557 1555 1539 1526 1525 1529 1532 1521 1520 1522 1524 1528 1535 1530 1528 1530 1532 1533 1534 1535 1535 1535 1534 1533 1531 1530 1529 1527 1525 1523 1521 1519 1517 1514 1512 1509 1506 1503 1501 1498
1546 1549 1555 1558 1558 1549 1530 1525 1527 1540 1534 1519 1518 1518 1521 1522 1523 1523 1525 1527 1529 1531 1532 1533 1533 1533 1533 1532 1531 1530 1528 1527 1525 1523 1521 1520 1517 1515 1513 1510 1507 1505 1502 1499
1545 1551 1555 1559 1558 1549 1523 1525 1529 1526 1518 1517 1517 1516 1517 1517 1519 1521 1522 1524 1526 1528 1530 1531 1531 1531 1531 1530 1530 1529 1527 1526 1525 1523 1522 1520 1518 1516 1514 1511 1509 1506 1503 1500
1536 1535 1538 1541 1538 1523 1519 1518 1517 1517 1517 1516 1515 1515 1515 1516 1517 1518 1520 1522 1524 1526 1527 1528 1529 1529 1529 1529 1528 1527 1526 1525 1524 1523 1522 1520 1519 1517 1515 1512 1510 1507 1504 1501
1526 1524 1527 1528 1522 1518 1516 1516 1516 1516 1516 1515 1514 1513 1513 1513 1514 1515 1517 1519 1521 1523 1524 1525 1526 1527 1527 1527 1526 1525 1525 1524 1523 1522 1521 1520 1518 1517 1515 1513 1511 1508 1505 1503
1526 1524 1525 1524 1520 1517 1515 1514 1514 1514 1514 1513 1512 1512 1511 1511 1512 1513 1514 1516 1518 1519 1521 1522 1523 1524 1524 1524 1524 1523 1523 1522 1521 1520 1519 1518 1517 1516 1515 1513 1511 1509 1507 1504
1530 1531 1530 1527 1521 1520 1517 1515 1514 1513 1512 1511 1511 1510 1509 1509 1509 1510 1511 1512 1514 1515 1517 1518 1519 1520 1521 1521 1521 1521 1520 1520 1519 1518 1517 1516 1515 1515 1514 1513 1511 1510 1507 1505